Flag for United Kingdom Weather past 2 weeks in Caversham, England, United Kingdom

Now
48 °F

Cool.


Feels Like: 42 °F
Forecast: 39 / 52 °F
Wind: 16 mph from Southwest

Location: Benson

Current Time: Dec 21, 2014 at 1:12:24 PM

Latest Report: Dec 21, 2014 at 12:00 PM


Visibility: 25 mi

Pressure: 30.32 "Hg

Humidity: 86%

Dew point: 44 °F

Location of CavershamLocation

Historic Weather in Caversham — Graph

°F

Caversham temperature yesterday

Maximum temperature yesterday: 48 °F (at 2:00 PM)
Minimum temperature yesterday: 36 °F (at 11:00 PM)
Average temperature yesterday: 44 °F

Past Weeks' High & Low Weather Summary

 TemperatureHumidityPressure
High56 °F (Dec 18, 2:00 PM)100% (Dec 6, 5:00 PM)30.46 "Hg (Dec 6, 5:00 PM)
Low22 °F (Dec 13, 9:00 AM)60% (Dec 19, 3:00 PM)29.26 "Hg (Dec 12, 4:00 AM)
Average43 °F85%29.97 "Hg
* Reported Dec 6 11:00 AM — Dec 21 11:00 AM, Caversham, Weather by CustomWeather, © 2014

Note: Actual official high and low records may vary slightly from our data, if they occured in-between our weather recording intervals... More about our weather records

Advertising

Caversham weather history for previous 24 hours

 ConditionsComfort  
Time TempWeatherWind HumidityBarometerVisibility
11:00 AM
Dec 21
47 °FCool.15 mph88%30.35 "Hg19 mi
10:00 AM46 °FCool.13 mph90%30.35 "Hg19 mi
9:00 AM45 °FQuite cool.14 mph91%30.35 "Hg22 mi
8:00 AM44 °FQuite cool.10 mph93%30.36 "Hg22 mi
7:00 AM44 °FQuite cool.13 mph94%30.36 "Hg4 mi
6:00 AM43 °FQuite cool.12 mph93%30.38 "Hg4 mi
5:00 AM42 °FQuite cool.9 mph96%30.40 "Hg2 mi
4:00 AM42 °FQuite cool.10 mph94%30.42 "Hg6 mi
3:00 AM42 °FQuite cool.10 mph90%30.43 "Hg14 mi
2:00 AM41 °FQuite cool.8 mph91%30.45 "Hg14 mi
1:00 AM37 °FChilly.6 mph93%30.46 "Hg15 mi
12:00 AM35 °FChilly.5 mph94%30.45 "Hg15 mi
11:00 PM
Dec 20
36 °FChilly.2 mph95%30.46 "Hg14 mi
10:00 PM43 °FQuite cool.5 mph81%30.45 "Hg16 mi
8:00 PM41 °FQuite cool.3 mph84%30.44 "Hg17 mi
7:00 PM44 °FQuite cool.7 mph76%30.44 "Hg18 mi
6:00 PM44 °FQuite cool.8 mph76%30.41 "Hg19 mi
5:00 PM45 °FQuite cool.8 mph74%30.39 "Hg22 mi
4:00 PM46 °FCool.10 mph71%30.37 "Hg22 mi
3:00 PM47 °FCool.10 mph70%30.35 "Hg22 mi
2:00 PM48 °FCool.13 mph66%30.34 "Hg19 mi
1:00 PM48 °FCool.13 mph67%30.33 "Hg22 mi
Weather by CustomWeather, © 2014

See weather overviewHow to use our weather pages